• In Deutschland
  • Länderverzeichnis
  • Für 7 Tage
  • Wassertemperatur
  • Satellitenkarten
  • Wetterkarte
  • Widgets
  • user-avatar
    Anmelden

    Stündliche Wetter Lindau

    Heute, 16 Dezember, Samstag

    Zeit Temperatur Niederschläge Wind Luftdruck Luftfeuchtigkeit
    00:00 -3°C° 0 mm 2 m/S 716 mmHg 86%
    01:00 -2°C° 0 mm 2 m/S 716 mmHg 84%
    02:00 -2°C° 0,1 mm 2 m/S 716 mmHg 85%
    03:00 -2°C° 0,1 mm 2 m/S 717 mmHg 86%
    04:00 -2°C° 0,1 mm 2 m/S 717 mmHg 88%
    05:00 -2°C° 0,3 mm 2 m/S 718 mmHg 89%
    06:00 -2°C° 0,3 mm 2 m/S 718 mmHg 90%
    07:00 +1°C° 0 mm 2 m/S 718 mmHg 92%
    08:00 +1°C° 0,3 mm 2 m/S 719 mmHg 92%
    09:00 +1°C° 0,3 mm 2 m/S 720 mmHg 92%
    10:00 +2°C° 0,3 mm 2 m/S 720 mmHg 92%
    11:00 +2°C° 0,5 mm 2 m/S 721 mmHg 92%
    12:00 +2°C° 0,5 mm 2 m/S 721 mmHg 92%
    13:00 +1°C° 0 mm 3 m/S 722 mmHg 93%
    14:00 +1°C° 0,9 mm 3 m/S 722 mmHg 93%
    15:00 +2°C° 0,9 mm 2 m/S 723 mmHg 94%
    16:00 +2°C° 0,9 mm 2 m/S 723 mmHg 94%
    17:00 +1°C° 0,7 mm 2 m/S 724 mmHg 95%
    18:00 +1°C° 0,7 mm 2 m/S 725 mmHg 95%
    19:00 +1°C° 0,7 mm 2 m/S 725 mmHg 96%
    20:00 +1°C° 0,5 mm 2 m/S 726 mmHg 96%
    21:00 +1°C° 0,5 mm 2 m/S 727 mmHg 96%
    22:00 -1°C° 0,5 mm 2 m/S 727 mmHg 96%
    23:00 -1°C° 0,4 mm 2 m/S 728 mmHg 96%

    Morgen, 17 Dezember, Sonntag

    Zeit Temperatur Niederschläge Wind Luftdruck Luftfeuchtigkeit
    00:00 -1°C° 0,4 mm 2 m/S 728 mmHg 96%
    01:00 -1°C° 0,4 mm 2 m/S 728 mmHg 97%
    02:00 -1°C° 0,3 mm 2 m/S 728 mmHg 96%
    03:00 -1°C° 0,3 mm 2 m/S 729 mmHg 96%
    04:00 -2°C° 0,3 mm 2 m/S 729 mmHg 96%
    05:00 -2°C° 0,5 mm 2 m/S 729 mmHg 96%
    06:00 -2°C° 0,5 mm 2 m/S 730 mmHg 96%
    07:00 -2°C° 0,5 mm 2 m/S 730 mmHg 96%
    08:00 -1°C° 0,4 mm 2 m/S 730 mmHg 95%
    09:00 -1°C° 0,4 mm 3 m/S 731 mmHg 94%
    10:00 -1°C° 0,4 mm 3 m/S 731 mmHg 93%
    11:00 -1°C° 0,1 mm 3 m/S 731 mmHg 91%
    12:00 0°C° 0,1 mm 3 m/S 731 mmHg 90%
    13:00 0°C° 0,1 mm 3 m/S 731 mmHg 88%
    14:00 -1°C° 0 mm 2 m/S 732 mmHg 89%
    15:00 -1°C° 0 mm 2 m/S 732 mmHg 90%
    16:00 -2°C° 0 mm 2 m/S 732 mmHg 91%
    17:00 -2°C° 0 mm 2 m/S 733 mmHg 91%
    18:00 -3°C° 0 mm 2 m/S 734 mmHg 92%
    19:00 -4°C° 0 mm 2 m/S 734 mmHg 92%
    20:00 -4°C° 0 mm 2 m/S 735 mmHg 92%
    21:00 -5°C° 0 mm 2 m/S 735 mmHg 91%
    22:00 -5°C° 0 mm 2 m/S 735 mmHg 90%
    23:00 -5°C° 0 mm 2 m/S 735 mmHg 90%

    übermorgen, 18 Dezember, Montag

    Zeit Temperatur Niederschläge Wind Luftdruck Luftfeuchtigkeit
    00:00 -6°C° 0 mm 2 m/S 735 mmHg 89%
    01:00 -6°C° 0 mm 2 m/S 735 mmHg 88%
    02:00 -6°C° 0 mm 2 m/S 735 mmHg 87%
    03:00 -7°C° 0 mm 3 m/S 735 mmHg 86%
    04:00 -6°C° 0 mm 3 m/S 735 mmHg 85%
    05:00 -6°C° 0 mm 3 m/S 734 mmHg 84%
    06:00 -5°C° 0 mm 3 m/S 734 mmHg 83%
    07:00 -4°C° 0 mm 3 m/S 733 mmHg 82%
    08:00 -4°C° 0,4 mm 3 m/S 733 mmHg 86%
    09:00 -2°C° 0,4 mm 3 m/S 732 mmHg 89%
    10:00 -1°C° 0,4 mm 3 m/S 731 mmHg 92%
    11:00 -1°C° 1,1 mm 3 m/S 731 mmHg 93%
    12:00 0°C° 1,1 mm 3 m/S 730 mmHg 94%
    13:00 +1°C° 1,1 mm 3 m/S 729 mmHg 95%
    14:00 +1°C° 1 mm 3 m/S 730 mmHg 96%
    15:00 +2°C° 1 mm 2 m/S 730 mmHg 96%
    16:00 +2°C° 1 mm 2 m/S 730 mmHg 97%
    17:00 +2°C° 0,6 mm 2 m/S 731 mmHg 97%
    18:00 +3°C° 0,6 mm 1 m/S 731 mmHg 97%
    19:00 +3°C° 0,6 mm 1 m/S 732 mmHg 97%
    20:00 +3°C° 0,2 mm 1 m/S 733 mmHg 97%
    21:00 +3°C° 0,2 mm 1 m/S 733 mmHg 97%
    22:00 +3°C° 0,2 mm 1 m/S 734 mmHg 97%
    23:00 +2°C° 0 mm 1 m/S 735 mmHg 97%

    19 Dezember, Dienstag

    Zeit Temperatur Niederschläge Wind Luftdruck Luftfeuchtigkeit
    00:00 +1°C° 0 mm 0 m/S 735 mmHg 97%
    01:00 +1°C° 0 mm 0 m/S 736 mmHg 97%
    02:00 0°C° 0 mm 0 m/S 736 mmHg 96%
    03:00 0°C° 0 mm 0 m/S 736 mmHg 96%
    04:00 0°C° 0 mm 0 m/S 737 mmHg 95%
    05:00 -1°C° 0 mm 0 m/S 737 mmHg 95%
    06:00 0°C° 0 mm 1 m/S 737 mmHg 94%
    07:00 0°C° 0 mm 1 m/S 738 mmHg 93%
    08:00 0°C° 0 mm 1 m/S 738 mmHg 93%
    09:00 +1°C° 0 mm 1 m/S 738 mmHg 93%
    10:00 +1°C° 0 mm 1 m/S 739 mmHg 92%
    11:00 +2°C° 0 mm 1 m/S 739 mmHg 93%
    12:00 +2°C° 0 mm 0 m/S 738 mmHg 93%
    13:00 +3°C° 0 mm 0 m/S 738 mmHg 93%
    14:00 +2°C° 0 mm 0 m/S 738 mmHg 94%
    15:00 +2°C° 0 mm 0 m/S 738 mmHg 95%
    16:00 +1°C° 0 mm 0 m/S 739 mmHg 96%
    17:00 +1°C° 0 mm 0 m/S 739 mmHg 95%
    18:00 +2°C° 0 mm 1 m/S 740 mmHg 95%
    19:00 +2°C° 0 mm 1 m/S 740 mmHg 95%
    20:00 +2°C° 0 mm 1 m/S 740 mmHg 94%
    21:00 +2°C° 0 mm 1 m/S 740 mmHg 93%
    22:00 +2°C° 0 mm 1 m/S 740 mmHg 93%
    23:00 +2°C° 0,2 mm 1 m/S 740 mmHg 93%

    20 Dezember, Mittwoch

    Zeit Temperatur Niederschläge Wind Luftdruck Luftfeuchtigkeit
    00:00 +1°C° 0,2 mm 2 m/S 739 mmHg 93%
    01:00 +1°C° 0,2 mm 2 m/S 739 mmHg 93%
    02:00 +2°C° 0,6 mm 2 m/S 739 mmHg 94%
    03:00 +2°C° 0,6 mm 2 m/S 739 mmHg 95%
    04:00 +2°C° 0,6 mm 2 m/S 739 mmHg 96%
    05:00 +2°C° 0,7 mm 2 m/S 739 mmHg 95%
    06:00 +2°C° 0,7 mm 2 m/S 739 mmHg 95%
    07:00 +2°C° 0,7 mm 2 m/S 739 mmHg 95%
    08:00 +2°C° 0,2 mm 2 m/S 739 mmHg 95%
    09:00 +3°C° 0,2 mm 2 m/S 739 mmHg 95%
    10:00 +4°C° 0,2 mm 1 m/S 739 mmHg 95%
    11:00 +4°C° 0 mm 2 m/S 739 mmHg 96%
    12:00 +4°C° 0 mm 2 m/S 739 mmHg 97%
    13:00 +4°C° 0 mm 2 m/S 738 mmHg 98%
    14:00 +4°C° 0 mm 2 m/S 739 mmHg 98%
    15:00 +4°C° 0 mm 2 m/S 739 mmHg 97%
    16:00 +4°C° 0 mm 2 m/S 739 mmHg 97%
    17:00 +4°C° 0,1 mm 2 m/S 739 mmHg 96%
    18:00 +5°C° 0,1 mm 1 m/S 739 mmHg 96%
    19:00 +5°C° 0,1 mm 1 m/S 740 mmHg 95%
    20:00 +5°C° 0,1 mm 1 m/S 740 mmHg 95%
    21:00 +4°C° 0,1 mm 2 m/S 740 mmHg 96%
    22:00 +4°C° 0,1 mm 2 m/S 740 mmHg 96%
    23:00 +4°C° 0,1 mm 2 m/S 740 mmHg 96%

    21 Dezember, Donnerstag

    Zeit Temperatur Niederschläge Wind Luftdruck Luftfeuchtigkeit
    00:00 +4°C° 0,1 mm 2 m/S 740 mmHg 97%
    01:00 +4°C° 0,1 mm 2 m/S 740 mmHg 97%
    02:00 +4°C° 0,1 mm 2 m/S 740 mmHg 97%
    03:00 +4°C° 0,1 mm 2 m/S 740 mmHg 97%
    04:00 +4°C° 0,1 mm 2 m/S 740 mmHg 97%
    05:00 +4°C° 0,1 mm 2 m/S 740 mmHg 98%
    06:00 +4°C° 0,1 mm 2 m/S 740 mmHg 98%
    07:00 +4°C° 0,1 mm 2 m/S 740 mmHg 98%
    08:00 +5°C° 0,1 mm 2 m/S 740 mmHg 98%
    09:00 +5°C° 0,1 mm 2 m/S 740 mmHg 99%
    10:00 +6°C° 0,1 mm 1 m/S 740 mmHg 99%
    11:00 +6°C° 0 mm 1 m/S 740 mmHg 99%
    12:00 +7°C° 0 mm 1 m/S 739 mmHg 99%
    13:00 +6°C° 0 mm 2 m/S 739 mmHg 99%
    14:00 +6°C° 0 mm 2 m/S 739 mmHg 99%
    15:00 +6°C° 0 mm 2 m/S 739 mmHg 99%
    16:00 +5°C° 0 mm 2 m/S 739 mmHg 99%
    17:00 +5°C° 0 mm 2 m/S 739 mmHg 98%
    18:00 +5°C° 0 mm 2 m/S 739 mmHg 97%
    19:00 +5°C° 0 mm 2 m/S 739 mmHg 96%
    20:00 +4°C° 0 mm 2 m/S 739 mmHg 95%
    21:00 +4°C° 0 mm 2 m/S 739 mmHg 94%
    22:00 +4°C° 0 mm 2 m/S 738 mmHg 93%
    23:00 +4°C° 0 mm 2 m/S 738 mmHg 93%
    Mehr zeigen

    XHprof extension not loaded